Content
SEND FEEDBACK

Daily
Averages
Monthly
Summary
United States of America

REDDING, CALIFORNIA


Home > North America > United States > California
Elevation: 535 feet     Latitude: 40 31N     Longitude: 122 18W

WEATHER
 
SELECT A DAY
Number of Records: 187,285;   Date Range: 1/1/95 - 8/30/14
 
SHARE

PRINT THIS DATA

[ ← Previous Day ]
WEATHER ALMANAC - FEBRUARY 6, 2013
[ Next Day → ]
[ °C ]   °F
Weather ElementAverageHighLow
Temperature43.7 °F57.9 °F (1:53 pm)30 °F (6:53 am)
Dewpoint32 °F37.9 °F (11:53 pm)26.6 °F (7:08 am)
Humidity67 %93 % (7:03 am)31 % (2:53 pm)
Barometer30.12 in30.18 in (8:53 am)30.05 in (3:53 pm)
Wind Speed3.6 mph11.5 mph (11:53 pm)
Weather ElementAverage
Visibility9.1 mi
Wind DirectionESE (113.5 °)

Weather ElementTotal
Precipitation---
Heating Degree Days21.1 (Base 65)
Averaged from 26 records on February 6, 2013
WEATHER CONDITIONS BREAKOUT
WIND DIRECTION BREAKOUT
WEATHER BY HOUR - FEBRUARY 6, 2013
[ °C ]   °F
Local TimeTemperatureDewpointHumidityBarometerVisibilityWind DirectionWind SpeedGust SpeedPrecipitationEventsConditions
1:53 AM37.0 °F33.1 °F86 %30.15 in6.0 miNorth (360°)6.9 mphClear
2:53 AM33.1 °F30.0 °F89 %30.15 in8.0 miNNE (30°)3.5 mphClear
3:53 AM33.1 °F30.0 °F89 %30.16 in10.0 miNW (310°)3.5 mphClear
4:53 AM33.1 °F30.0 °F89 %30.16 in10.0 miCalmClear
5:53 AM32.0 °F28.9 °F88 %30.15 in9.0 miCalmClear
6:53 AM30.0 °F27.0 °F88 %30.16 in10.0 miCalmClear
7:03 AM30.2 °F28.4 °F93 %30.16 in1.8 miCalmClear
7:08 AM30.2 °F26.6 °F86 %30.16 in0.8 miCalmClear
7:19 AM30.2 °F26.6 °F86 %30.16 in10.0 miCalmClear
7:53 AM30.9 °F27.0 °F85 %30.17 in10.0 miNNE (30°)3.5 mphClear
8:53 AM39.0 °F34.0 °F82 %30.18 in10.0 miCalmClear
9:53 AM46.0 °F37.0 °F71 %30.17 in10.0 miCalmClear
10:53 AM52.0 °F33.1 °F49 %30.16 in10.0 miCalmClear
11:53 AM55.0 °F34.0 °F45 %30.13 in10.0 miCalmClear
12:53 PM57.0 °F35.1 °F44 %30.10 in10.0 miSouth (170°)3.5 mphClear
1:53 PM57.9 °F30.9 °F36 %30.07 in10.0 miSE (140°)3.5 mphClear
2:53 PM57.9 °F27.0 °F31 %30.06 in10.0 miSSW (210°)4.6 mphClear
3:53 PM57.9 °F33.1 °F39 %30.05 in10.0 miSSE (160°)6.9 mphClear
4:53 PM55.0 °F33.1 °F43 %30.05 in10.0 miSSE (160°)5.8 mphClear
5:53 PM51.1 °F34.0 °F52 %30.05 in10.0 miSSE (150°)8.1 mphClear
6:53 PM50.0 °F34.0 °F54 %30.06 in10.0 miSouth (180°)8.1 mphClear
7:53 PM46.0 °F33.1 °F61 %30.06 in10.0 miSSE (150°)6.9 mphClear
8:53 PM46.0 °F34.0 °F63 %30.08 in10.0 miWNW (290°)5.8 mphClear
9:53 PM46.9 °F36.0 °F66 %30.07 in10.0 miSouth (190°)4.6 mphPartly Cloudy
10:53 PM48.9 °F37.0 °F64 %30.07 in10.0 miSW (220°)6.9 mphOvercast
11:53 PM50.0 °F37.9 °F63 %30.07 in10.0 miSSW (200°)11.5 mphOvercast
Hourly data recorded from KRDD, located miles away from Redding, California







STORIES FROM OUR PARTNERS